World > North America > United States > Massachusetts

Worcester County, Massachusetts Regional Weather

Lat: 42.36N, Lon: 71.89W
Wx Zone: MAZ004Web Search
Worcester County Weather Warning NWS WEATHER ALERT FOR THE WORCESTER COUNTY, MA AREA - WINTER STORM WARNING Issued: 422 AM EDT Fri Apr 16 2021 Worcester County Weather Warning  

Helpful Tip: You can add this page to Bookmarks by pressing the Ctrl key & d key at the same time. Mac users press command & d.

Feedback


°F Click to change Worcester County hourly weather to Imperial units.Click to change Worcester County hourly weather to Metric units. °C
Worcester County Weather Map
UTC Time: 4/16/2021, 17:33
Your Time:

Worcester County, MA Regional Weather

Expires:202104161800;;647851
ASUS41 KOKX 161714
RWROKX

Regional Weather Roundup
National Weather Service New York NY
100 PM EDT FRI APR 16 2021

Note: "FAIR" indicates few or no clouds below 12,000 feet with no
significant weather and/or obstructions to visibility.


CTZ002-004>006-009-010-012-RIZ004-006-007-MAZ004-011-015-161800-
Southern New England

 In CT
  
CITY           SKY/WX    TMP DP  RH WIND       PRES   REMARKS
Bradley Intl   LGT RAIN  40  36  86 NW12      29.58F WCI  33          
Hartford       LGT RAIN  41  36  82 N10       29.59S                  
Danbury        CLOUDY    47  34  60 NW8       29.59F                  
Wtrbury/Oxford LGT RAIN  40  40 100 N14G23    29.57F WCI  32          
Norwalk Harbor   N/A     46 N/A N/A W15         N/A                   
Bridgeport     CLOUDY    48  35  60 NW13      29.57F                  
Meriden        LGT RAIN  42  36  79 N13G20    29.59R                  
New Haven      LGT RAIN  46  38  73 NW8G18    29.57F                  
Chester        LGT RAIN  39  37  93 NW15      29.56S WCI  31          
Groton         LGT RAIN  39  36  89 NW17G25   29.54F FOG     WCI  30  
Willimantic    LGT SNOW  35  33  92 W9        29.54F FOG     WCI  28  

 In RI
  
CITY           SKY/WX    TMP DP  RH WIND       PRES   REMARKS
Providence     LGT RAIN  37  35  92 W18G28    29.45F FOG     WCI  27  
Block Island   LGT RAIN  38  35  89 NW13G28   29.52F WCI  30          
Westerly       LGT RAIN  36  35  96 W12G21    29.52F WCI  28          
 
In MA
  
CITY           SKY/WX    TMP DP  RH WIND       PRES   REMARKS
Boston         LGT RAIN  39  35  86 N23G33    29.39F FOG     WCI  28  
Worcester      LGT SNOW  35  31  85 N20G37    29.47F VSB 1   WCI  24  
Westfield      RAIN      38  36  92 N15       29.59S WCI  29          
Provincetown   CLOUDY    48  47  96 S17G23    29.22R                  
Nantucket      CLOUDY    42  37  82 SW28G38   29.41R                  
$$


SKY/WX - Weather  TMP - Temperature  DP - Dew Point  RH - Relative Humidity
WIND - Wind Direction/Speed PRES - Barometric Pressure VSB - Visibility
WCI - Wind Chill Index E13G22 Wind - East Wind 13 mph/Gusts of 22 mph